Marshalltown, IA

7:37 PM CST on February 05, 2016 (GMT -0600)
Marshalltown Municipal

Weather History for KMIW - February, 2012

Change the Weather History Date:

Sunday, February 19, 2012

  Actual Average Record
Temperature  
Mean Temperature 29 °F 24 °F  
Max Temperature 42 °F 33 °F 48 °F (2002)
Min Temperature 15 °F 15 °F -9 °F (2015)
Degree Days  
Heating Degree Days 36 41  
Month to date heating degree days 697 821  
Since 1 July heating degree days 4298 5054  
Cooling Degree Days 0 0  
Month to date cooling degree days 0 0  
Year to date cooling degree days 0 0  
Moisture  
Dew Point 19 °F    
Average Humidity 65    
Maximum Humidity 84    
Minimum Humidity 45    
Precipitation  
Precipitation 0.00 in 0.03 in 0.43 in (1998)
Month to date precipitation 0.10 0.48  
Year to date precipitation 0.33  
Sea Level Pressure  
Sea Level Pressure 30.16 in    
Wind  
Wind Speed 7 mph (SE)    
Max Wind Speed 15 mph    
Max Gust Speed 30 mph    
Visibility 10 miles    
Events      
T = Trace of Precipitation, MM = Missing Value Source: NWS Daily Summary

Daily Weather History Graph

Daily Weather History Graph

Search for Another Location

Airport or City:

Trip Planner

Search our weather history database for the weather conditions in past years. The results will help you decide how hot, cold, wet, or windy it might be!

Date:

Astronomy

Feb. 19, 2012 Rise Set
Actual Time 7:02 AM CST 5:48 PM CST
Civil Twilight 6:34 AM CST 6:17 PM CST
Nautical Twilight 6:01 AM CST 6:50 PM CST
Astronomical Twilight 5:29 AM CST 7:22 PM CST
Moon 5:25 AM CST (2/19) 3:49 PM CST (2/19)
Length of Visible Light 11h 43m
Length of Day
10h 46m
Waning Crescent, 5% of the Moon is Illuminated
Feb 19
Waning Crescent
Feb 21
New
Feb 29
First Quarter
Mar 8
Full
Mar 14
Last Quarter

Hourly Weather History & Observations

Time (CST) Temp. Windchill Dew Point Humidity Pressure Visibility Wind Dir Wind Speed Gust Speed Precip Events Conditions
12:53 AM 21.0 °F 14.6 °F 16.0 °F 81% 30.19 in 10.0 mi East 4.6 mph - N/A   Clear
1:53 AM 19.9 °F 13.4 °F 15.1 °F 81% 30.19 in 10.0 mi ESE 4.6 mph - N/A   Clear
2:53 AM 21.0 °F - 15.1 °F 78% 30.19 in 10.0 mi Calm Calm - N/A   Clear
3:53 AM 19.9 °F 14.9 °F 14.0 °F 78% 30.18 in 10.0 mi SSE 3.5 mph - N/A   Clear
4:53 AM 17.1 °F - 12.9 °F 84% 30.19 in 10.0 mi Calm Calm - N/A   Clear
5:53 AM 18.0 °F 11.1 °F 14.0 °F 84% 30.19 in 10.0 mi ESE 4.6 mph - N/A   Clear
6:53 AM 17.1 °F 8.7 °F 12.9 °F 84% 30.18 in 10.0 mi ESE 5.8 mph - N/A   Clear
7:53 AM 19.9 °F - 15.1 °F 81% 30.21 in 10.0 mi Calm Calm - N/A   Clear
8:53 AM 26.1 °F 19.4 °F 19.9 °F 78% 30.20 in 10.0 mi SE 5.8 mph - N/A   Clear
9:53 AM 30.9 °F 23.5 °F 23.0 °F 72% 30.21 in 10.0 mi SSE 8.1 mph - N/A   Clear
10:53 AM 36.0 °F 28.5 °F 21.9 °F 57% 30.19 in 10.0 mi SSE 10.4 mph - N/A   Clear
11:53 AM 39.0 °F 32.8 °F 21.9 °F 50% 30.18 in 10.0 mi SSE 9.2 mph - N/A   Clear
12:53 PM 41.0 °F 34.7 °F 21.9 °F 47% 30.16 in 10.0 mi South 10.4 mph - N/A   Clear
1:53 PM 41.0 °F 34.7 °F 21.9 °F 47% 30.12 in 10.0 mi SSE 10.4 mph 16.1 mph N/A   Clear
2:53 PM 41.0 °F 34.7 °F 21.9 °F 47% 30.12 in 10.0 mi South 10.4 mph - N/A   Clear
3:53 PM 41.0 °F 34.7 °F 21.0 °F 45% 30.11 in 10.0 mi SSE 10.4 mph - N/A   Clear
4:53 PM 39.0 °F 34.0 °F 21.0 °F 49% 30.12 in 10.0 mi South 6.9 mph - N/A   Clear
5:53 PM 35.1 °F 29.3 °F 21.0 °F 57% 30.14 in 10.0 mi SE 6.9 mph - N/A   Clear
6:53 PM 28.9 °F 21.9 °F 21.0 °F 72% 30.14 in 10.0 mi ESE 6.9 mph - N/A   Clear
7:53 PM 27.0 °F 18.7 °F 19.9 °F 75% 30.13 in 10.0 mi ESE 8.1 mph - N/A   Clear
8:53 PM 30.9 °F 22.2 °F 19.9 °F 64% 30.13 in 10.0 mi SE 10.4 mph - N/A   Clear
9:53 PM 30.9 °F 21.2 °F 19.9 °F 64% 30.13 in 10.0 mi SE 12.7 mph - N/A   Clear
10:53 PM 28.0 °F 21.7 °F 19.0 °F 69% 30.14 in 10.0 mi SSE 5.8 mph - N/A   Clear
11:53 PM 26.1 °F 16.8 °F 18.0 °F 71% 30.12 in 10.0 mi SE 9.2 mph - N/A   Clear